Location: Jackson
(42.2460°N, 84.4010°W)
Time: 03:49:33
(UTC-05:00)

Transit 4A - Visible Passes

Search period start: 15 February 2026 00:00
Search period end: 25 February 2026 00:00
Orbit: 865 x 976 km, 66.8° (Epoch: 14 February)

Date Brightness Start Highest point End Pass type
(mag) Time Alt. Az. Time Alt. Az. Time Alt. Az.
15 Feb 9.9 03:46:45 21° E 03:46:45 21° E 03:49:45 10° NE visible
15 Feb 7.8 05:30:15 53° W 05:31:01 57° NW 05:36:57 10° NNE visible
16 Feb 9.6 03:55:49 27° ENE 03:55:49 27° ENE 03:59:02 10° NE visible
16 Feb 8.2 05:39:18 39° WNW 05:39:55 40° NW 05:45:34 10° NNE visible
17 Feb 9.3 04:04:45 32° ENE 04:04:45 32° ENE 04:08:04 10° NE visible
17 Feb 8.7 05:48:15 29° WNW 05:48:53 30° NW 05:54:07 10° NNE visible
18 Feb 9.1 04:13:37 35° NE 04:13:37 35° NE 04:16:58 10° NNE visible
18 Feb 9.1 05:57:07 22° NW 05:57:57 22° NW 06:02:35 10° N visible
19 Feb 9.1 04:22:24 34° NNE 04:22:24 34° NNE 04:25:45 10° NNE visible
19 Feb 9.4 06:05:53 16° NW 06:07:07 17° NW 06:10:57 10° N visible
20 Feb 9.1 04:31:07 31° N 04:31:07 31° N 04:34:26 10° NNE visible
20 Feb 9.7 06:14:36 12° NW 06:16:22 13° NNW 06:19:05 10° N visible
21 Feb 10.6 02:56:18 11° NE 02:56:18 11° NE 02:56:38 10° NE visible
21 Feb 9.2 04:39:47 27° N 04:39:47 27° N 04:43:02 10° NNE visible
21 Feb 9.9 06:25:09 10° NNW 06:25:42 10° NNW 06:26:13 10° NNW visible
22 Feb 10.5 03:04:55 14° NE 03:04:55 14° NE 03:05:38 10° NE visible
22 Feb 9.4 04:48:24 23° NNW 04:48:24 23° NNW 04:51:34 10° NNE visible
23 Feb 10.3 03:13:31 15° NNE 03:13:31 15° NNE 03:14:29 10° NNE visible
23 Feb 9.5 04:56:59 19° NNW 04:56:59 19° NNW 05:00:01 10° N visible
24 Feb 10.2 03:22:03 16° NNE 03:22:03 16° NNE 03:23:14 10° NNE visible
24 Feb 9.7 05:05:31 16° NNW 05:05:31 16° NNW 05:08:20 10° N visible
